Middlesboro, KY

1:16 PM EDT on March 23, 2017 (GMT -0400)
Middlesboro

Weather History for K1A6 - February, 2014

Change the Weather History Date:

Tuesday, February 25, 2014

  Actual Average (KLOZ) Record (KLOZ)
Temperature  
Mean Temperature 36 °F -  
Max Temperature 45 °F 48 °F 74 °F (2000)
Min Temperature 27 °F 28 °F -3 °F (1967)
Degree Days  
Heating Degree Days 29    
Moisture  
Dew Point 18 °F    
Average Humidity 48    
Maximum Humidity 77    
Minimum Humidity 28    
Precipitation  
Precipitation 0.00 in - - ()
Sea Level Pressure  
Sea Level Pressure 30.08 in    
Wind  
Wind Speed 2 mph (NNW)    
Max Wind Speed 10 mph    
Max Gust Speed -    
Visibility 10 miles    
Events      
Averages and records for this station are not official NWS values.
T = Trace of Precipitation, MM = Missing Value Source: NWS Daily Summary

Daily Weather History Graph

Daily Weather History Graph

Search for Another Location

Airport or City:

Trip Planner

Search our weather history database for the weather conditions in past years. The results will help you decide how hot, cold, wet, or windy it might be!

Date:

Astronomy

Feb. 25, 2014 Rise Set
Actual Time 6:10 AM CST 5:25 PM CST
Civil Twilight 5:44 AM CST 5:51 PM CST
Nautical Twilight 5:14 AM CST 6:21 PM CST
Astronomical Twilight 4:44 AM CST 6:51 PM CST
Moon 3:00 AM CST (2/25) 1:34 PM CST (2/25)
Length of Visible Light 12h 06m
Length of Day
11h 14m
Waning Crescent, 18% of the Moon is Illuminated
Feb 25
Waning Crescent
Mar 1
New
Mar 8
First Quarter
Mar 16
Full
Mar 23
Last Quarter

Hourly Weather History & Observations

Time (CST) Temp. Windchill Dew Point Humidity Pressure Visibility Wind Dir Wind Speed Gust Speed Precip Events Conditions
12:15 AM 27.7 °F - 21.0 °F 76% 30.13 in 10.0 mi Calm Calm - N/A   Clear
12:35 AM 27.9 °F - 21.0 °F 75% 30.12 in 10.0 mi Calm Calm - N/A   Scattered Clouds
12:55 AM 28.0 °F - 21.2 °F 76% 30.10 in 10.0 mi Calm Calm - N/A   Scattered Clouds
1:15 AM 27.9 °F - 21.4 °F 77% 30.09 in 10.0 mi Calm Calm - N/A   Mostly Cloudy
1:30 AM 27.9 °F - 21.4 °F 77% 30.09 in 10.0 mi Calm Calm - N/A   Mostly Cloudy
1:55 AM 29.5 °F - 21.6 °F 72% 30.10 in 10.0 mi Calm Calm - N/A   Overcast
2:15 AM 30.0 °F - 21.4 °F 70% 30.10 in 10.0 mi Calm Calm - N/A   Overcast
3:55 AM 31.5 °F - 21.7 °F 67% 30.08 in 10.0 mi Calm Calm - N/A   Overcast
4:15 AM 31.8 °F - 22.6 °F 69% 30.09 in 10.0 mi Calm Calm - N/A   Overcast
4:30 AM 32.0 °F - 20.5 °F 63% 30.08 in 10.0 mi Calm Calm - N/A   Overcast
4:55 AM 32.0 °F - 19.0 °F 59% 30.09 in 10.0 mi Calm Calm - N/A   Overcast
5:15 AM 32.0 °F - 19.0 °F 59% 30.08 in 10.0 mi Calm Calm - N/A   Overcast
5:35 AM 32.4 °F - 19.8 °F 60% 30.09 in 10.0 mi Calm Calm - N/A   Overcast
5:55 AM 32.0 °F - 21.7 °F 66% 30.11 in 10.0 mi Calm Calm - N/A   Overcast
6:15 AM 32.4 °F - 20.5 °F 62% 30.12 in 10.0 mi Calm Calm - N/A   Overcast
6:35 AM 32.9 °F - 20.1 °F 59% 30.12 in 10.0 mi Calm Calm - N/A   Overcast
6:55 AM 32.9 °F - 21.4 °F 63% 30.12 in 10.0 mi Calm Calm - N/A   Overcast
7:15 AM 33.4 °F - 20.3 °F 59% 30.12 in 10.0 mi Calm Calm - N/A   Overcast
7:35 AM 34.0 °F - 15.6 °F 47% 30.12 in 10.0 mi Calm Calm - N/A   Overcast
7:55 AM 34.7 °F - 15.3 °F 45% 30.13 in 10.0 mi Calm Calm - N/A   Overcast
8:15 AM 35.1 °F - 16.0 °F 46% 30.14 in 10.0 mi Calm Calm - N/A   Overcast
8:35 AM 35.8 °F 30.1 °F 15.1 °F 43% 30.14 in 10.0 mi NNE 6.9 mph - N/A   Overcast
8:55 AM 36.0 °F 29.0 °F 14.9 °F 42% 30.15 in 10.0 mi North 9.2 mph - N/A   Overcast
9:15 AM 36.1 °F 30.6 °F 16.2 °F 44% 30.15 in 10.0 mi North 6.9 mph - N/A   Overcast
9:35 AM 36.3 °F 29.5 °F 16.3 °F 44% 30.15 in 10.0 mi NNE 9.2 mph - N/A   Overcast
9:55 AM 37.0 °F 32.4 °F 15.6 °F 42% 30.15 in 10.0 mi NNE 5.8 mph - N/A   Overcast
10:15 AM 37.8 °F 32.5 °F 16.2 °F 42% 30.15 in 10.0 mi NNE 6.9 mph - N/A   Overcast
10:35 AM 38.5 °F 31.6 °F 15.8 °F 40% 30.15 in 10.0 mi NNE 10.4 mph - N/A   Overcast
11:15 AM 40.3 °F 36.3 °F 15.6 °F 37% 30.14 in 10.0 mi North 5.8 mph - N/A   Overcast
11:35 AM 40.8 °F 36.2 °F 13.6 °F 33% 30.13 in 10.0 mi NW 6.9 mph - N/A   Overcast
11:55 AM 41.0 °F 34.7 °F 12.4 °F 31% 30.12 in 10.0 mi NNW 10.4 mph - N/A   Overcast
12:15 PM 41.9 °F 37.5 °F 14.0 °F 32% 30.11 in 10.0 mi NNW 6.9 mph - N/A   Overcast
12:35 PM 41.9 °F 36.3 °F 13.1 °F 31% 30.11 in 10.0 mi NNW 9.2 mph - N/A   Overcast
12:55 PM 41.5 °F 36.4 °F 12.9 °F 31% 30.10 in 10.0 mi NW 8.1 mph - N/A   Scattered Clouds
1:15 PM 41.2 °F - 13.6 °F 33% 30.09 in 10.0 mi Calm Calm - N/A   Clear
1:35 PM 41.5 °F 37.1 °F 13.3 °F 32% 30.08 in 10.0 mi North 6.9 mph - N/A   Clear
1:55 PM 42.1 °F 40.2 °F 13.6 °F 32% 30.07 in 10.0 mi West 3.5 mph - N/A   Clear
2:15 PM 42.8 °F - 13.3 °F 30% 30.06 in 10.0 mi Calm Calm - N/A   Clear
2:35 PM 43.3 °F - 13.6 °F 30% 30.04 in 10.0 mi Calm Calm - N/A   Clear
2:55 PM 44.4 °F - 13.3 °F 28% 30.03 in 10.0 mi Calm Calm - N/A   Clear
3:15 PM 44.8 °F 43.3 °F 13.6 °F 28% 30.02 in 10.0 mi North 3.5 mph - N/A   Clear
3:35 PM 45.1 °F 43.7 °F 13.5 °F 28% 30.02 in 10.0 mi East 3.5 mph - N/A   Clear
3:55 PM 43.7 °F 41.1 °F 14.4 °F 31% 30.02 in 10.0 mi NNW 4.6 mph - N/A   Clear
4:15 PM 43.9 °F 39.9 °F 15.1 °F 31% 30.02 in 10.0 mi NW 6.9 mph - N/A   Clear
4:35 PM 43.2 °F 38.4 °F 15.6 °F 33% 30.03 in 10.0 mi WNW 8.1 mph - N/A   Clear
4:55 PM 42.4 °F 38.8 °F 15.8 °F 34% 30.03 in 10.0 mi NW 5.8 mph - N/A   Clear
5:15 PM 41.9 °F 40.0 °F 15.6 °F 35% 30.03 in 10.0 mi NW 3.5 mph - N/A   Clear
5:35 PM 41.2 °F 37.3 °F 16.2 °F 36% 30.04 in 10.0 mi NW 5.8 mph - N/A   Clear
5:55 PM 40.5 °F 35.8 °F 16.2 °F 37% 30.05 in 10.0 mi NW 6.9 mph - N/A   Clear
6:15 PM 40.5 °F 34.1 °F 17.4 °F 39% 30.05 in 10.0 mi NNW 10.4 mph - N/A   Clear
6:35 PM 40.3 °F 36.3 °F 17.6 °F 40% 30.06 in 10.0 mi NW 5.8 mph - N/A   Clear
6:55 PM 39.4 °F 36.1 °F 18.3 °F 43% 30.06 in 10.0 mi NNW 4.6 mph - N/A   Clear
7:15 PM 39.2 °F 37.0 °F 18.7 °F 44% 30.06 in 10.0 mi NW 3.5 mph - N/A   Clear
7:35 PM 38.3 °F - 19.2 °F 46% 30.06 in 10.0 mi Calm Calm - N/A   Clear
7:55 PM 37.2 °F 32.6 °F 20.3 °F 50% 30.07 in 10.0 mi North 5.8 mph - N/A   Clear
8:15 PM 37.4 °F 31.4 °F 18.5 °F 46% 30.07 in 10.0 mi North 8.1 mph - N/A   Clear
8:35 PM 36.5 °F 32.7 °F 19.0 °F 49% 30.06 in 10.0 mi North 4.6 mph - N/A   Clear
8:55 PM 36.0 °F - 19.0 °F 50% 30.06 in 10.0 mi Calm Calm - N/A   Clear
9:15 PM 35.6 °F 31.7 °F 19.9 °F 53% 30.06 in 10.0 mi North 4.6 mph - N/A   Clear
9:35 PM 36.3 °F 33.7 °F 18.3 °F 48% 30.05 in 10.0 mi North 3.5 mph - N/A   Clear
9:55 PM 34.7 °F 31.8 °F 20.8 °F 57% 30.05 in 10.0 mi NNW 3.5 mph - N/A   Clear
10:15 PM 35.2 °F - 19.2 °F 52% 30.03 in 10.0 mi Calm Calm - N/A   Clear
10:35 PM 35.1 °F - 19.9 °F 54% 30.01 in 10.0 mi Calm Calm - N/A   Clear
10:55 PM 35.4 °F - 18.1 °F 49% 30.01 in 10.0 mi Calm Calm - N/A   Scattered Clouds
11:15 PM 35.2 °F 32.4 °F 19.0 °F 52% 30.01 in 10.0 mi North 3.5 mph - N/A   Mostly Cloudy
11:35 PM 35.1 °F 32.2 °F 19.0 °F 52% 30.00 in 10.0 mi NE 3.5 mph - N/A   Mostly Cloudy
11:55 PM 34.9 °F - 19.4 °F 53% 30.00 in 10.0 mi Calm Calm - N/A   Mostly Cloudy